Seattle Boeing, WA

6:59 PM PDT on March 30, 2017 (GMT -0700)
Boeing Field-King County International

Weather History for KBFI - October, 2012

Change the Weather History Date:

Sunday, October 7, 2012

  Actual Average Record
Temperature  
Mean Temperature 58 °F -  
Max Temperature 72 °F 63 °F 77 °F (2000)
Min Temperature 46 °F 47 °F 37 °F (1983)
Degree Days  
Heating Degree Days 6    
Growing Degree Days 8 (Base 50)    
Moisture  
Dew Point 42 °F    
Average Humidity 59    
Maximum Humidity 83    
Minimum Humidity 31    
Precipitation  
Precipitation 0.00 in - - ()
Sea Level Pressure  
Sea Level Pressure 30.02 in    
Wind  
Wind Speed 1 mph (NW)    
Max Wind Speed 8 mph    
Max Gust Speed -    
Visibility 10 miles    
Events      
Averages and records for this station are not official NWS values.
T = Trace of Precipitation, MM = Missing Value Source: NWS Daily Summary

Daily Weather History Graph

Daily Weather History Graph

Search for Another Location

Airport or City:

Trip Planner

Search our weather history database for the weather conditions in past years. The results will help you decide how hot, cold, wet, or windy it might be!

Date:

Astronomy

Oct. 07, 2012 Rise Set
Actual Time 7:17 AM PDT 6:35 PM PDT
Civil Twilight 6:46 AM PDT 7:06 PM PDT
Nautical Twilight 6:11 AM PDT 7:41 PM PDT
Astronomical Twilight 5:35 AM PDT 8:17 PM PDT
Moon 11:36 PM PDT (10/7) 2:15 PM PDT (10/7)
Length of Visible Light 12h 19m
Length of Day
11h 18m
Waning Gibbous, 55% of the Moon is Illuminated
Oct 7
Waning Gibbous
Oct 8
Last Quarter
Oct 15
New
Oct 21
First Quarter
Oct 29
Full

Hourly Weather History & Observations

Time (PDT) Temp. Dew Point Humidity Pressure Visibility Wind Dir Wind Speed Gust Speed Precip Events Conditions
12:53 AM 53.1 °F 42.1 °F 66% 30.10 in 10.0 mi Calm Calm - N/A   Clear
1:53 AM 50.0 °F 39.9 °F 68% 30.10 in 10.0 mi Calm Calm - N/A   Clear
2:53 AM 50.0 °F 41.0 °F 71% 30.10 in 10.0 mi Calm Calm - N/A   Clear
3:53 AM 48.0 °F 42.1 °F 80% 30.09 in 10.0 mi Calm Calm - N/A   Clear
4:53 AM 46.9 °F 41.0 °F 80% 30.09 in 10.0 mi Calm Calm - N/A   Clear
5:53 AM 46.9 °F 42.1 °F 83% 30.09 in 10.0 mi Calm Calm - N/A   Clear
6:53 AM 46.0 °F 41.0 °F 83% 30.08 in 10.0 mi Calm Calm - N/A   Clear
7:53 AM 46.0 °F 41.0 °F 83% 30.08 in 10.0 mi Calm Calm - N/A   Clear
8:53 AM 48.9 °F 43.0 °F 80% 30.09 in 10.0 mi SSE 3.5 mph - N/A   Clear
9:53 AM 55.9 °F 42.1 °F 60% 30.08 in 10.0 mi Calm Calm - N/A   Clear
10:53 AM 61.0 °F 42.1 °F 50% 30.07 in 10.0 mi Calm Calm - N/A   Clear
11:53 AM 64.0 °F 41.0 °F 43% 30.05 in 10.0 mi Variable 4.6 mph - N/A   Clear
12:53 PM 64.9 °F 41.0 °F 42% 30.03 in 10.0 mi WNW 5.8 mph - N/A   Clear
1:53 PM 68.0 °F 39.9 °F 36% 30.01 in 10.0 mi NW 5.8 mph - N/A   Clear
2:53 PM 70.0 °F 37.9 °F 31% 29.99 in 10.0 mi NW 8.1 mph - N/A   Clear
3:53 PM 71.1 °F 39.9 °F 32% 29.96 in 10.0 mi NW 5.8 mph - N/A   Clear
4:53 PM 70.0 °F 41.0 °F 35% 29.95 in 10.0 mi WNW 4.6 mph - N/A   Clear
5:53 PM 68.0 °F 41.0 °F 37% 29.93 in 10.0 mi NNW 4.6 mph - N/A   Clear
6:53 PM 64.9 °F 42.1 °F 43% 29.93 in 10.0 mi NW 3.5 mph - N/A   Clear
7:53 PM 61.0 °F 43.0 °F 52% 29.93 in 10.0 mi Calm Calm - N/A   Clear
8:53 PM 57.9 °F 44.1 °F 60% 29.93 in 10.0 mi Calm Calm - N/A   Clear
9:53 PM 55.0 °F 44.1 °F 67% 29.94 in 10.0 mi Calm Calm - N/A   Clear
10:53 PM 55.0 °F 43.0 °F 64% 29.93 in 10.0 mi Calm Calm - N/A   Clear
11:53 PM 52.0 °F 43.0 °F 71% 29.94 in 10.0 mi Calm Calm - N/A   Clear